DECAYED
Showing default

ASTROCAST-0102, 47488 (Decayed)

Orbit data source: Space-Track

ASTROCAST-0102, 47488 was a payload satellite owned by Astrocast (CH) in LEO that was launched on Sun, 24 Jan 2021 UTC via an FALCON 9 launch vehicle from the Air Force Eastern Test Range (AFETR). Payload-class satellites include a variety of spacecraft equipped with specific instruments for various scientific and technological missions. These include communications satellites like Starlink; space stations such as the ISS; scientific satellites like the Hubble; Earth observation satellites from companies like Planet Labs, Umbra, and HawkEye 360; GPS; miniature CubeSats for education and research; and military/defense satellites.

Not visible in the next 10 days
Identifier
47488, 2021-006CD
Orbit
Decayed
Country
Flag of CHCH / SWTZ
Related business
Manufacturer
Astrocast
Mission
Decayed Commercial Communications
Bus & Motor
CUBESAT 3U, Unknown motor
Mass
5 kg wet, 5 kg dry
Launch date (UTC)
2021-01-24 (5 years ago)
Launch vehicle
FALCON 9
Launch site
Air Force Eastern Test Range (AFETR)
Object type
Payload
Rocket body
Debris
Shape & HBR
Box, Unknown HBR
Radar Cross Section
0.035 m², Medium (>0.1 m² and < 1m²)

Expand to show TLE details & history
Last TLE update: 1 year ago

TLE from 1 year ago
0 ASTROCAST-0102
1 47488U 21006CD  25034.69187211  .07629829  23628-5  32908-2 0  9992
2 47488  97.2851  97.4411 0005461 281.4352  78.6325 16.22681451224018
Epoch: 2025-02-03T16:36Z
TLE epoch observation values (Epoch: 2025-02-03T16:36:17.750Z)
Latitude
-0.00002°
Longitude
74.25927°
Altitude
214.806 km
Speed
7.778 km/s
True Right ascension
06h 29m 45s
True Declination
0° 00' 00"
Sunlit
Object was in full shadow at epoch
Visualization orbit readout
Latitude
Unknown
Longitude
Unknown
Altitude
Unknown
Speed
Unknown
Apparent Right ascension
Unknown
Apparent Declination
Unknown
Sunlit
N/A
Visualization observer readout
Local Sidereal Time
13:12:30
Azimuth
Unknown
Elevation
Unknown
Doppler factor
Unknown
Orbital elements
Apogee altitude
212.704 km
Perigee altitude
205.509 km
Semi-major axis
6,587.244 km
Eccentricity
0.00055
Inclination
97.2851°
RAAN
97.4411°
Arg. of periapsis
281.4352°
True anomaly
78.69386°
Mean anomaly
78.6325°
Eccentric anomaly
78.66318°
Mean motion
4.05964 °/min
Orbital period
88.68 mins
BSTAR
0.0032908
Loading maneuver chart data...
Computing Atmospheric mass density...

Documentation

Showing up to 5 results
|